"Time","Temp","Dewpoint","Humidity","Pressure","Direction","Speed","Gust","Precip","PrecipRate"
"00:04:59","50.2","48.5","94","29.54","349","4.5","15","0.00","0.03"
"00:09:56","50.2","48.5","94","29.54","336","3.6","10.8","0.00","0.03"
"00:14:58","50.1","48.5","94.4","29.55","353","3.5","12","0.00","0.03"
"00:19:58","50.1","48.7","95","29.55","348","3.4","10.8","0.00","0.03"
"00:24:56","50","48.6","95","29.55","339","3.3","10.8","0.00","0.02"
"00:29:59","50","48.6","94.8","29.56","356","2.6","8.4","0.00","0.01"
"00:34:57","49.9","48.3","94.2","29.56","344","3.4","14.4","0.00","0.01"
"00:39:57","49.9","48.2","94","29.56","347","3.5","15","0.00","0.01"
"00:44:58","49.9","48.2","94","29.57","338","3.6","10.4","0.00","0.01"
"00:49:57","49.8","48.1","94","29.57","347","3.2","9.6","0.00","0.00"
"00:54:59","49.8","48.1","94","29.57","354","6.2","16.1","0.00","0.00"
"00:59:57","49.7","48","94","29.57","340","3.4","12","0.00","0.00"
"01:04:58","49.6","47.9","94","29.57","1","6.9","19.2","0.00","0.00"
"01:09:58","49.6","47.9","94","29.57","349","4.8","13.2","0.00","0.00"
"01:14:57","49.6","47.9","94","29.58","344","4.6","12","0.00","0.00"
"01:19:59","49.5","47.8","94","29.58","351","3.6","11.5","0.00","0.00"
"01:24:57","49.5","47.8","93.8","29.58","356","3.5","12","0.00","0.00"
"01:29:59","49.5","47.7","93.5","29.58","344","4","9.6","0.00","0.00"
"01:34:57","49.6","47.8","93.8","29.58","344","3.9","15","0.00","0.00"
"01:38:17","49.6","47.9","94","29.58","351","2.8","12","0.00","0.00"
"01:44:57","49.6","47.9","94","29.58","335","3.9","13.2","0.00","0.00"
"01:49:59","49.6","47.9","94","29.58","333","1.7","8.1","0.00","0.00"
"01:54:56","49.6","47.8","93.8","29.58","341","3.2","12","0.00","0.00"
"01:59:57","49.6","47.9","93.9","29.60","352","2.3","7.2","0.00","0.00"
"02:04:58","49.6","47.9","94","29.60","338","3.3","10.8","0.00","0.00"
"02:09:58","49.6","47.9","94","29.60","324","4.4","12","0.00","0.00"
"02:14:56","49.7","48","94","29.60","349","3","9.6","0.00","0.00"
"02:19:58","49.7","48","94","29.60","350","3","9.2","0.00","0.00"
"02:24:59","49.7","47.9","93.4","29.60","351","5.2","15.6","0.00","0.00"
"02:29:57","49.7","47.8","93","29.60","352","5.2","16.1","0.00","0.00"
"02:34:58","49.7","47.8","93","29.59","353","3.8","10.8","0.00","0.00"
"02:39:56","49.7","47.8","93","29.59","354","2.8","10.4","0.00","0.00"
"02:44:58","49.6","47.8","93.3","29.60","350","3.8","15","0.00","0.00"
"02:49:59","49.6","47.8","93.6","29.60","351","3","11.5","0.00","0.00"
"02:54:57","49.6","47.9","94","29.60","327","3.4","12","0.00","0.00"
"02:59:58","49.6","47.9","93.9","29.60","345","4.6","15","0.00","0.00"
"03:04:59","49.5","47.8","93.9","29.60","352","3.9","13.2","0.00","0.00"
"03:09:59","49.5","47.8","94","29.60","345","3.9","12","0.00","0.00"
"03:14:57","49.4","47.5","93.3","29.61","7","4.8","17.3","0.00","0.00"
"03:19:59","49.2","47.3","93","29.61","350","4.3","10.8","0.00","0.00"
"03:24:56","49.2","47.3","93","29.61","349","3.6","15","0.00","0.00"
"03:29:57","49.1","47.2","93","29.61","326","3.1","8.4","0.00","0.00"
"03:34:59","49.1","47.2","93.2","29.60","352","4","14.4","0.00","0.00"
"03:39:59","49.1","47.4","94","29.60","344","3.9","13.2","0.00","0.00"
"03:44:56","49","47.3","94","29.61","348","3.1","8.4","0.00","0.00"
"03:49:57","49","47.3","94","29.61","342","3.3","15.6","0.00","0.00"
"03:54:58","49","47.3","94","29.61","354","4.7","16.1","0.00","0.00"
"03:59:56","49","47.3","94","29.62","329","4.1","13.2","0.00","0.00"
"04:04:57","48.9","47.2","94","29.62","352","3.5","8.4","0.00","0.00"
"04:09:56","48.9","47.2","93.9","29.62","360","1.6","5.8","0.00","0.00"
"04:14:56","48.8","47.2","94","29.62","338","3.4","12","0.00","0.00"
"04:19:59","48.8","47.2","94","29.62","358","3.8","12","0.00","0.00"
"04:24:56","48.7","47.2","94.2","29.62","351","4.6","15.6","0.00","0.00"
"04:29:58","48.6","47","94","29.63","346","4.5","12","0.00","0.00"
"04:34:57","48.6","47","94","29.63","346","3.7","9.6","0.00","0.00"
"04:39:58","48.5","46.9","94","29.63","339","3.7","13.2","0.00","0.00"
"04:44:56","48.5","46.9","94","29.63","340","4.6","12","0.00","0.00"
"04:49:58","48.4","46.8","94","29.63","342","3.5","10.8","0.00","0.00"
"04:54:59","48.4","46.8","94","29.63","347","3.5","9.6","0.00","0.00"
"04:59:57","48.3","46.7","94","29.63","323","3.5","13.2","0.00","0.00"
"05:04:58","48.3","46.7","94","29.63","340","3.9","10.8","0.00","0.00"
"05:09:57","48.3","46.7","94","29.63","343","3.4","7.2","0.00","0.00"
"05:14:56","48.2","46.4","93.3","29.63","329","3.3","7.2","0.00","0.00"
"05:19:58","48.1","46.3","93.2","29.63","323","3.9","15","0.00","0.00"
"05:24:59","48.1","46.2","93","29.63","351","3.7","15","0.00","0.00"
"05:29:57","48.1","46.2","93","29.63","335","2.7","8.4","0.00","0.00"
"05:34:58","48.1","46.2","93","29.63","332","2.6","8.4","0.00","0.00"
"05:39:57","48.1","46.2","93","29.63","335","3.2","8.4","0.00","0.00"
"05:44:58","48.1","46.2","93","29.65","296","2.3","7.2","0.00","0.00"
"05:49:56","48.1","46.2","93","29.65","345","3","8.4","0.00","0.00"
"05:54:57","48.1","46.2","93","29.65","335","3","10.8","0.00","0.00"
"05:59:58","48.1","46.2","92.8","29.65","329","3.2","7.2","0.00","0.00"
"06:04:59","48.2","46.2","92.7","29.65","348","2.5","7.2","0.00","0.00"
"06:09:56","48.2","46","92","29.65","330","3.9","10.8","0.00","0.00"
"06:14:57","48.2","46","92","29.65","344","3.1","10.8","0.00","0.00"
"06:19:58","48.2","46","92","29.65","350","2.5","9.2","0.00","0.00"
"06:24:57","48.2","46","92","29.65","356","2.1","4.8","0.00","0.00"
"06:29:59","48.2","46","92","29.65","354","2","6","0.00","0.00"
"06:34:56","48.1","45.9","92","29.65","350","2.2","6","0.00","0.00"
"06:39:59","48","45.8","92","29.65","354","2.1","7.2","0.00","0.00"
"06:44:57","47.9","45.7","92","29.66","345","1.8","5.8","0.00","0.00"
"06:49:59","47.7","45.5","92","29.66","321","1.8","6","0.00","0.00"
"06:54:56","47.6","45.4","92","29.66","291","1.6","6","0.00","0.00"
"06:59:58","47.5","45.3","92","29.66","304","2","4.8","0.00","0.00"
"07:04:59","47.4","45.2","92","29.66","326","1.9","7.2","0.00","0.00"
"07:09:59","47.2","45","92","29.66","311","3.2","6","0.00","0.00"
"07:14:57","47.2","45","92","29.68","336","3.1","7.2","0.00","0.00"
"07:19:59","47.1","44.9","92","29.68","327","3.4","10.8","0.00","0.00"
"07:24:57","47","44.8","92","29.68","341","2.6","8.1","0.00","0.00"
"07:29:59","46.9","44.7","92","29.68","344","3.2","7.2","0.00","0.00"
"07:34:56","46.9","44.7","92","29.68","319","2.9","8.4","0.00","0.00"
"07:39:59","46.9","44.6","91.8","29.68","345","2.4","8.4","0.00","0.00"
"07:44:56","46.9","44.6","91.7","29.68","322","3.2","8.1","0.00","0.00"
"07:49:58","46.9","44.5","91.3","29.68","335","2.9","6","0.00","0.00"
"07:54:56","47","44.5","91","29.68","339","3","12","0.00","0.00"
"07:59:57","47.1","44.6","91","29.69","354","3.8","11.5","0.00","0.00"
"08:04:58","47.2","44.7","91","29.69","338","3.4","10.8","0.00","0.00"
"08:09:58","47.4","44.9","91","29.69","326","3.5","7.2","0.00","0.00"
"08:14:57","47.5","44.9","90.5","29.69","332","3.4","12","0.00","0.00"
"08:19:59","47.8","45","90","29.69","353","3.2","12","0.00","0.00"
"08:24:57","48","45.2","89.8","29.69","326","4","11.5","0.00","0.00"
"08:29:59","48.3","45.3","89.2","29.70","299","3.5","8.4","0.00","0.00"
"08:34:56","48.9","45.5","88.3","29.70","308","4.1","12","0.00","0.00"
"08:39:59","49.4","45.8","87.3","29.70","328","3.4","14.4","0.00","0.00"
"08:44:57","49.9","46","86.4","29.70","345","4.3","15","0.00","0.00"
"08:49:59","50.4","46.2","85.5","29.70","346","4.5","13.2","0.00","0.00"
"08:54:57","50.8","46.4","85","29.70","329","3.6","13.2","0.00","0.00"
"08:59:59","51.4","46.5","83.3","29.71","332","3.9","12","0.00","0.00"
"09:04:56","51.7","46.5","82.3","29.71","344","4.7","13.2","0.00","0.00"
"09:09:56","51.8","46.8","82.7","29.71","337","3.8","10.8","0.00","0.00"
"09:14:58","52.3","46.9","82","29.71","319","3.3","10.8","0.00","0.00"
"09:19:56","52.7","46.9","80.8","29.71","292","3.4","10.8","0.00","0.00"
"09:24:58","53","46.9","79.9","29.71","325","5.9","13.2","0.00","0.00"
"09:29:56","53","46.8","79.3","29.71","339","6.1","18","0.00","0.00"
"09:34:58","53.2","46.7","78.5","29.71","335","6.3","18.4","0.00","0.00"
"09:39:57","54","47.5","78.4","29.71","298","3.5","13.2","0.00","0.00"
"09:44:58","54.3","47.2","76.8","29.71","317","5.6","16.1","0.00","0.00"
"09:49:56","54.8","47.7","77","29.71","322","2.8","13.2","0.00","0.00"
"09:54:58","54.9","47.4","75.9","29.71","321","5.4","15","0.00","0.00"
"09:59:56","54.8","47.1","75.3","29.71","319","4.9","13.2","0.00","0.00"
"10:04:57","54.9","47.6","76.3","29.71","328","5","13.2","0.00","0.00"
"10:09:56","55.4","47.7","75.3","29.71","327","5.3","16.1","0.00","0.00"
"10:14:59","55","47","74.2","29.72","324","5.7","13.2","0.00","0.00"
"10:19:57","53.9","46.4","75.6","29.72","302","5.5","12","0.00","0.00"
"10:24:59","53.6","46.6","77.1","29.72","337","3.3","8.4","0.00","0.00"
"10:29:57","54.1","47.1","77.3","29.72","330","1.8","7.2","0.00","0.00"
"10:34:59","54.3","47","76.3","29.72","335","4.4","10.8","0.00","0.00"
"10:39:58","54.7","47.1","75.4","29.72","312","4.3","17.3","0.00","0.00"
"10:44:55","55.2","46.7","73.1","29.72","318","8.1","21.9","0.00","0.00"
"10:49:58","54.7","46.1","72.5","29.71","325","8.6","22.8","0.00","0.00"
"10:54:59","55.2","46.5","72.6","29.71","334","7","23","0.00","0.00"
"10:59:57","56","46.7","70.7","29.71","333","8.1","23","0.00","0.00"
"11:04:58","55.9","46.1","69.6","29.70","327","8.3","24.2","0.01","0.01"
"11:09:58","55","45.4","69.8","29.70","344","8.6","18.4","0.01","0.01"
"11:14:56","55.3","46.1","71.1","29.70","332","6.6","18.4","0.01","0.01"
"11:19:58","55.7","45.9","69.5","29.70","317","7.5","19.2","0.01","0.01"
"11:24:59","55.6","46","70.1","29.70","329","8.8","18.4","0.01","0.01"
"11:29:57","55.9","46.2","69.9","29.70","315","6.6","16.1","0.01","0.01"
"11:34:58","55.8","45.9","69.1","29.70","26","7.5","21.9","0.01","0.01"
"11:39:57","55.6","45.6","68.9","29.70","321","6.2","16.1","0.01","0.01"
"11:44:58","55.7","45.6","68.7","29.71","339","5.9","16.1","0.01","0.01"
"11:49:56","57","46.8","68.6","29.71","314","7.1","21.6","0.01","0.01"
"11:54:58","58.9","46.9","64.4","29.71","317","6.5","20.7","0.01","0.01"
"11:59:56","58.2","46","64","29.71","355","6.3","17.3","0.01","0.01"
"12:04:57","57.1","44.6","63.1","29.71","322","5.2","12","0.01","0.01"
"12:09:57","56.9","44.3","62.8","29.71","328","6.6","17.3","0.01","0.00"
"12:14:59","56.9","44.6","63.5","29.71","335","4.7","10.8","0.01","0.00"
"12:19:57","57","44.7","63.3","29.71","311","4.5","13.2","0.01","0.00"
"12:24:59","56.9","44.6","63.5","29.71","321","6.2","18.4","0.01","0.00"
"12:29:58","56.5","44.2","63.3","29.71","329","6.6","18","0.01","0.00"
"12:34:59","56.2","44.4","64.5","29.71","315","4.4","13.2","0.01","0.00"
"12:39:58","56.2","44.4","64.6","29.71","315","5.6","15.6","0.01","0.00"
"12:44:57","56.5","44","62.9","29.71","319","7.1","20.4","0.01","0.00"
"12:49:59","56.5","43.4","61.6","29.70","337","8.7","20.7","0.01","0.00"
"12:54:57","57","43.8","61.2","29.70","301","6","18","0.01","0.00"
"12:59:59","56.9","43.4","60.5","29.70","317","5.8","16.1","0.01","0.00"
"13:04:57","56.9","43.2","60","29.70","324","6.4","19.6","0.01","0.00"
"13:09:57","57.6","43.6","59.5","29.70","313","4.6","13.2","0.01","0.00"
"13:14:56","58.8","44.4","58.7","29.70","322","3.9","15.6","0.01","0.00"
"13:19:58","58.4","42.7","56","29.70","337","6.8","16.1","0.01","0.00"
"13:24:59","57.5","42","56.2","29.70","331","6.3","18","0.01","0.00"
"13:29:57","58.4","42.7","55.9","29.70","336","7.2","19.6","0.01","0.00"
"13:34:58","59.5","43.4","55","29.69","284","5","17.3","0.01","0.00"
"13:39:57","60.5","44.2","55","29.69","333","3.9","13.2","0.01","0.00"
"13:44:59","59.3","42.5","53.7","29.69","296","7.3","17.3","0.01","0.00"
"13:49:57","58.7","42.4","54.6","29.68","325","8.9","24.2","0.01","0.00"
"13:54:59","58.3","42.1","54.9","29.68","316","6.7","20.7","0.01","0.00"
"13:59:57","59","43.3","56","29.68","318","5","18","0.01","0.00"
"14:04:57","59.4","41.6","51.6","29.68","330","9","23","0.01","0.00"
"14:09:57","59.9","42","51.6","29.68","337","10.1","25.3","0.01","0.00"
"14:14:59","60","42","51.4","29.68","348","7.3","21.9","0.01","0.00"
"14:19:57","60.9","43.4","52.4","29.67","336","5.9","17.3","0.01","0.00"
"14:24:58","62.1","43.8","51.1","29.67","340","5","15.6","0.01","0.00"
"14:29:56","61.7","42.7","49.7","29.67","344","8.1","19.6","0.01","0.00"
"14:34:57","61.4","42","49","29.67","308","7.7","25.3","0.01","0.00"
"14:39:56","59.7","41.1","50.2","29.67","307","7.1","24.2","0.01","0.00"
"14:44:58","60.2","42.5","52","29.67","323","7.3","24.2","0.01","0.00"
"14:49:56","59.4","40.9","50.3","29.67","339","8.6","20.7","0.01","0.00"
"14:54:57","59.1","41","51","29.67","312","6.6","16.1","0.01","0.00"
"14:59:59","60.4","41.9","50.5","29.67","339","5.7","16.1","0.01","0.00"
"15:04:56","60.5","42","50.4","29.67","305","4.5","20.4","0.01","0.00"
"15:09:56","59.4","41","50.5","29.67","334","8.1","20.7","0.01","0.00"
"15:14:58","59","40.8","50.6","29.67","330","7.7","21.6","0.01","0.00"
"15:19:56","58.7","40.5","50.8","29.66","309","5.9","21.9","0.01","0.00"
"15:24:58","59.4","41.7","51.8","29.66","332","4.8","15","0.01","0.00"
"15:29:59","59.2","41.3","51.5","29.67","343","5.1","15","0.01","0.00"
"15:34:57","58.4","40.9","52.3","29.67","343","4.5","13.2","0.01","0.00"
"15:39:56","58","41.2","53.5","29.67","356","8.3","19.2","0.01","0.00"
"15:44:57","58","41","53","29.67","334","5.7","19.6","0.01","0.00"
"15:49:59","58.9","41.5","52.2","29.67","339","5.2","12","0.01","0.00"
"15:54:57","58.8","41.8","53.3","29.67","325","3.9","11.5","0.01","0.00"
"15:59:59","58.4","41","52.4","29.67","343","5.6","13.2","0.01","0.00"
"16:04:56","59.2","42.2","53.3","29.66","347","4.6","15","0.01","0.00"
"16:09:56","60","41.8","51","29.66","321","3.3","8.4","0.01","0.00"
"16:14:59","60.2","42.4","51.8","29.67","321","5.1","15.6","0.01","0.00"
"16:19:57","59.3","40.6","50","29.67","317","6.6","18.4","0.01","0.00"
"16:24:59","59","41.1","51.4","29.67","333","5.3","18.4","0.01","0.00"
"16:29:57","59.1","41.1","51.3","29.67","315","4.9","18","0.01","0.00"
"16:34:58","58.5","40.5","51.3","29.66","335","6.7","18.4","0.01","0.00"
"16:39:57","58","41","53","29.66","338","3.2","11.5","0.01","0.00"
"16:44:59","58.1","41","52.9","29.67","334","4.6","13.2","0.01","0.00"
"16:49:57","58.3","41.4","53.3","29.67","311","3.2","8.4","0.01","0.00"
"16:54:59","58.4","41.4","53.4","29.67","337","2.6","8.4","0.01","0.00"
"16:59:57","58.2","41.4","53.6","29.67","331","4","10.8","0.01","0.00"
"17:04:58","58.4","41.9","54.1","29.67","334","2.4","7.2","0.01","0.00"
"17:09:58","58.9","41.9","53.2","29.67","340","4.4","15","0.01","0.00"
"17:14:57","58.6","41.5","53","29.68","334","2.8","10.4","0.01","0.00"
"17:19:59","58.2","41.4","53.5","29.68","343","4.7","8.4","0.01","0.00"
"17:24:57","57.9","41.7","54.9","29.68","326","3.6","8.4","0.01","0.00"
"17:29:59","57.6","41.4","54.7","29.68","327","4.1","18","0.01","0.00"
"17:34:56","57.4","40.8","53.8","29.68","310","6.5","18.4","0.01","0.00"
"17:39:59","57.3","40.9","54.2","29.68","301","5","15","0.01","0.00"
"17:44:56","57.2","41.2","55.1","29.68","305","3.2","6","0.01","0.00"
"17:49:58","57","41","55","29.68","292","3.9","15","0.01","0.00"
"17:54:56","56.8","41.1","55.6","29.68","316","3.7","18.4","0.01","0.00"
"17:59:58","56.6","41.2","56.2","29.68","323","3.2","16.1","0.01","0.00"
"18:04:59","56.6","41.1","56","29.68","321","4.3","12","0.01","0.00"
"18:09:59","56.4","40.9","56","29.68","308","3.7","8.4","0.01","0.00"
"18:14:58","56.3","40.7","55.8","29.68","319","5","12","0.01","0.00"
"18:19:56","56.1","40.6","55.9","29.68","324","4.3","17.3","0.01","0.00"
"18:24:58","56","40.8","56.7","29.68","290","3.3","10.8","0.01","0.00"
"18:29:57","55.6","40.7","57.2","29.69","281","3.4","10.4","0.01","0.00"
"18:34:59","55.3","40.8","57.8","29.69","315","3.8","8.4","0.01","0.00"
"18:39:58","55.1","40.7","58.3","29.69","327","3","7.2","0.01","0.00"
"18:44:57","54.8","40.8","59.1","29.69","303","2.2","6","0.01","0.00"
"18:49:59","54.6","41","60","29.69","343","2.1","6","0.01","0.00"
"18:54:56","54.3","41","60.8","29.69","333","2.5","6","0.01","0.00"
"18:59:56","54","40.9","61.2","29.69","325","2.2","6","0.01","0.00"
"19:04:57","53.8","41","61.7","29.69","356","2.7","7.2","0.01","0.00"
"19:09:57","53.7","41","62","29.69","346","2.9","7.2","0.01","0.00"
"19:14:57","53.6","41.3","63","29.70","349","2.4","7.2","0.01","0.00"
"19:19:59","53.4","41","62.6","29.70","321","2.6","6.9","0.01","0.00"
"19:24:57","53.3","41","63","29.70","289","2.2","14.4","0.01","0.00"
"19:29:56","53.3","41","62.9","29.71","301","2.8","7.2","0.01","0.00"
"19:34:57","53.4","41","62.9","29.71","337","2.1","6","0.01","0.00"
"19:39:57","53.3","41","63","29.71","355","1.2","6","0.01","0.00"
"19:44:56","53.2","40.9","63","29.71","357","0.5","3.6","0.01","0.00"
"19:49:58","53","41","63.6","29.71","316","1","6","0.01","0.00"
"19:54:57","52.8","41","64","29.71","309","1.4","6","0.01","0.00"
"19:59:59","52.6","41","64.6","29.71","339","1.2","3.6","0.01","0.00"
"20:04:57","52.4","41","65.2","29.71","339","0.2","2.3","0.01","0.00"
"20:09:56","52.1","41.1","66","29.71","339","0","1.2","0.01","0.00"
"20:14:59","51.6","41.3","67.7","29.72","339","0.1","1.2","0.01","0.00"
"20:19:57","50.8","41.8","71.1","29.72","339","0.8","2.4","0.01","0.00"
"20:24:58","50","42","73.8","29.72","339","0.5","2.4","0.01","0.00"
"20:29:56","49.5","41.8","74.6","29.72","339","0","1.2","0.01","0.00"
"20:34:58","49","41.4","75","29.72","339","0.2","1.2","0.01","0.00"
"20:39:57","48.7","41.4","75.9","29.72","339","0","0","0.01","0.00"
"20:44:59","48.3","41.4","77.1","29.73","339","0","0","0.01","0.00"
"20:49:56","47.9","41.5","78.3","29.73","339","0.1","3.6","0.01","0.00"
"20:54:59","47.6","41.4","79","29.73","339","0.3","3.5","0.01","0.00"
"20:59:58","47.2","41","79","29.73","339","0","0","0.01","0.00"
"21:04:59","47","41.1","79.9","29.73","339","0","0","0.01","0.00"
"21:09:56","46.7","41","80.4","29.73","339","0.2","1.2","0.01","0.00"
"21:14:59","46.5","41","80.8","29.73","333","0.9","2.4","0.01","0.00"
"21:19:57","46.7","41.1","80.5","29.73","332","0.4","2.4","0.01","0.00"
"21:24:58","47.4","41.1","78.5","29.73","330","0.6","2.4","0.01","0.00"
"21:29:57","47.8","41.3","78","29.73","330","0.1","1.2","0.01","0.00"
"21:34:59","48","41.2","77.2","29.73","330","0.5","2.4","0.01","0.00"
"21:39:58","48","41","76.7","29.73","330","0.3","2.4","0.01","0.00"
"21:44:56","48.3","41","75.8","29.74","330","0","1.2","0.01","0.00"
"21:49:58","48.4","41.1","75.6","29.74","330","0.1","1.2","0.01","0.00"
"21:54:57","48.8","41","74.5","29.74","340","1.5","7.2","0.01","0.00"
"21:59:58","49.1","41.2","74.2","29.74","336","0.7","2.4","0.01","0.00"
"22:04:56","49.2","41.2","73.9","29.74","334","0.3","2.3","0.01","0.00"
"22:09:56","49.2","41.3","74","29.74","334","0","0","0.01","0.00"
"22:14:56","49.1","41.3","74.4","29.74","334","0","0","0.01","0.00"
"22:19:58","48.9","41.3","75","29.74","275","0.4","3.6","0.01","0.00"
"22:24:59","49","41","73.7","29.74","280","1.3","3.6","0.01","0.00"
"22:29:58","49.5","41","72.6","29.74","282","0.9","3.6","0.01","0.00"
"22:34:59","49.7","41","72.2","29.74","279","0.1","1.2","0.01","0.00"
"22:39:59","49.7","41","72","29.74","279","0","1.2","0.01","0.00"
"22:44:56","49.5","41","72.5","29.74","278","0.2","1.2","0.01","0.00"
"22:49:59","49.2","41","73.2","29.74","279","0.2","1.2","0.01","0.00"
"22:54:56","48.6","40.8","74.4","29.74","279","0.1","1.2","0.01","0.00"
"22:59:59","48.1","40.6","75.2","29.74","279","0.1","1.2","0.01","0.00"
"23:04:56","47.7","40.6","76.3","29.74","279","0.1","1.2","0.01","0.00"
"23:09:56","47.3","40.7","77.8","29.74","279","0.4","2.4","0.01","0.00"
"23:14:59","47.1","40.6","78","29.74","279","0.6","2.4","0.01","0.00"
"23:19:58","47","40.8","79","29.74","279","2.1","4.8","0.01","0.00"
"23:24:59","46.9","40.7","78.9","29.74","308","1.8","6","0.01","0.00"
"23:29:58","47.5","40.8","77.6","29.74","314","1.9","6","0.01","0.00"
"23:34:59","48.2","41.2","76.5","29.73","307","2.4","6","0.01","0.00"
"23:39:59","48.8","41.4","75.3","29.73","334","2","4.8","0.01","0.00"
"23:44:56","49.1","41.5","75","29.73","309","1.4","7.2","0.01","0.00"
